Погода в Котласе

Россия / Архангельская область     61°15′10″N   46°37′59″E
темп.,
°C
ветер,
м/с
пор.,
м/с
влажн.,
%
обл.,
%
осадки,
мм/ч
давл.,
гПа
погр.,
м
25 июля, вс
вс2500:00+10юз3862100 0.0 1012263
03:00+10юз2769100 0.0 1013235
06:00+11юз2765100 0.0 1014253
09:00+15зюз485297 0.0 1014687
12:00+17зюз4745100 0.0 10142248
15:00+18зюз4747100 0.0 10151732
18:00+16зюз385797 0.0 1015471
21:00+12юз3874100 0.0 1015152
26 июля, пн
пн2600:00+13ююз2576100 0.1 1016115
03:00+13юз296988 0.1 1015302
06:00+14з3972100 0.0 1016471
09:00+13з2684100 0.3 1016370
12:00+19з466066 0.5 10141386
15:00+13зсз31196100 2.6 1015585
18:00+14зсз399353 0.3 1014795
21:00+11зсз249813 0.9 101586
27 июля, вт
вт2700:00+9зсз22971 0.0 101637
03:00+7ссз27979 0.0 1017144
06:00+8сз39917 0.0 1018373
09:00+11сз477086 0.0 1018565
12:00+17сз584774 0.0 10171914
15:00+19сз593790 0.0 10152557
18:00+16зсз395079 0.0 1015776
21:00+12зсз39674 0.0 1014200
28 июля, ср
ср2800:00+9ссз22793 0.0 101520
03:00+6сз12905 0.0 101616
06:00+10ссз23685 0.0 1015218
09:00+16зсз2347100 0.0 1013828
12:00+19зсз2537100 0.0 10111697
15:00+13зюз3782100 0.4 1010271
18:00+13юв149357 0.6 1008162
21:00+11ююз119851 1.2 100727
29 июля, чт
чт2900:00+11юз229815 0.3 100654
03:00+10зсз119949 0.3 100511
06:00+13сз019770 0.0 1005138
09:00+16с118479 0.0 1004451
12:00+23ссз125529 0.0 1003926
15:00+25ссв234795 0.1 10021482
18:00+17в239798 5.3 1002105
21:00+15ссв119896 6.7 100227